Tracking 27420 objects as of 28-May-2023
HD Live streaming from Space Station
objects crossing your sky now

BSAT-3A

Track BSAT-3A now!
BSAT-3A is classified as:


NORAD ID: 32019
Int'l Code: 2007-036B
Perigee: 35,790.4 km
Apogee: 35,796.2 km
Inclination: 0.0 °
Period: 1,436.1 minutes
Semi major axis: 42164 km
RCS: 12.5893 m2 (large)
Launch date: August 14, 2007
Source: Japan (JPN)
Launch site: FRENCH GUIANA (FRGUI)

BSAT-3a, is a 4,365-pound satellite for the Broadcasting Satellite System Corp. of Japan.
Your satellite tracking list
Your tracking list is empty




NASA's NSSDC Master Catalog

Two Line Element Set (TLE):
1 32019U 07036B   23147.96686458 -.00000340  00000-0  00000-0 0  9998
2 32019   0.0440 221.3040 0000691 308.3996 173.4693  1.00273364 39327
Source of the keplerian elements: AFSPC